Challis, ID

2:21 AM MDT on September 22, 2017 (GMT -0600)
Challis

Weather History for KLLJ - April, 2014

Change the Weather History Date:

Tuesday, April 1, 2014

  Actual Average Record
Temperature  
Mean Temperature 36 °F 41 °F  
Max Temperature 48 °F 54 °F 74 °F (1966)
Min Temperature 23 °F 27 °F 3 °F (1936)
Degree Days  
Heating Degree Days 29 24  
Month to date heating degree days 29 24  
Since 1 July heating degree days 6631 6969  
Cooling Degree Days 0 0  
Month to date cooling degree days 0 0  
Year to date cooling degree days 0 0  
Moisture  
Dew Point 27 °F    
Average Humidity 71    
Maximum Humidity 100    
Minimum Humidity 41    
Precipitation  
Precipitation 0.20 in 0.02 in 0.70 in (1963)
Month to date precipitation 0.20 0.02  
Year to date precipitation 1.88 1.86  
Sea Level Pressure  
Sea Level Pressure 29.67 in    
Wind  
Wind Speed 5 mph (East)    
Max Wind Speed 16 mph    
Max Gust Speed 21 mph    
Visibility 8 miles    
Events Rain , Snow    
T = Trace of Precipitation, MM = Missing Value Source: NWS Daily Summary

Daily Weather History Graph

Daily Weather History Graph

Search for Another Location

Airport or City:

Trip Planner

Search our weather history database for the weather conditions in past years. The results will help you decide how hot, cold, wet, or windy it might be!

Date:

Astronomy

Apr. 01, 2014 Rise Set
Actual Time 7:17 AM MDT 8:04 PM MDT
Civil Twilight 6:48 AM MDT 8:33 PM MDT
Nautical Twilight 6:13 AM MDT 9:08 PM MDT
Astronomical Twilight 5:36 AM MDT 9:45 PM MDT
Moon 8:18 AM MDT (4/1) 10:37 PM MDT (4/1)
Length of Visible Light 13h 45m
Length of Day
12h 46m
Waxing Crescent, 5% of the Moon is Illuminated
Apr 1
Waxing Crescent
Apr 7
First Quarter
Apr 15
Full
Apr 22
Last Quarter
Apr 29
New

Hourly Weather History & Observations

Time (MDT) Temp. Windchill Dew Point Humidity Pressure Visibility Wind Dir Wind Speed Gust Speed Precip Events Conditions
12:21 AM 30.0 °F 24.1 °F 25.0 °F 82% 29.78 in 9.0 mi SSE 5.8 mph - N/A   Mostly Cloudy
12:55 AM 30.9 °F - 25.0 °F 79% 29.78 in 10.0 mi Calm Calm - N/A   Overcast
1:08 AM 30.0 °F - 24.1 °F 79% 29.77 in 10.0 mi Calm Calm - N/A   Mostly Cloudy
1:35 AM 28.9 °F - 24.1 °F 82% 29.76 in 10.0 mi Calm Calm - N/A   Mostly Cloudy
1:55 AM 28.0 °F - 24.1 °F 85% 29.77 in 10.0 mi Calm Calm - N/A   Scattered Clouds
2:55 AM 25.0 °F - 21.9 °F 88% 29.76 in 10.0 mi Calm Calm - N/A   Mostly Cloudy
3:55 AM 24.1 °F - 21.9 °F 91% 29.75 in 10.0 mi Calm Calm - N/A   Clear
4:35 AM 26.1 °F - 23.0 °F 88% 29.71 in 10.0 mi Calm Calm - N/A   Mostly Cloudy
4:55 AM 24.1 °F - 21.9 °F 91% 29.74 in 10.0 mi Calm Calm - N/A   Overcast
5:55 AM 27.0 °F - 24.1 °F 89% 29.73 in 10.0 mi Calm Calm - N/A   Overcast
6:12 AM 27.0 °F - 24.1 °F 89% 29.69 in 10.0 mi Calm Calm - N/A   Overcast
6:55 AM 24.1 °F - 21.9 °F 91% 29.73 in 10.0 mi Calm Calm - N/A   Scattered Clouds
7:08 AM 24.1 °F 19.7 °F 21.9 °F 91% 29.69 in 10.0 mi NNW 3.5 mph - N/A   Mostly Cloudy
7:55 AM 28.0 °F 24.2 °F 25.0 °F 88% 29.72 in 10.0 mi North 3.5 mph - N/A   Overcast
8:29 AM 30.0 °F 25.2 °F 25.0 °F 82% 29.68 in 10.0 mi North 4.6 mph - N/A   Scattered Clouds
8:55 AM 30.0 °F 26.5 °F 26.1 °F 85% 29.72 in 10.0 mi ENE 3.5 mph - N/A   Clear
9:55 AM 30.9 °F - 25.0 °F 79% 29.72 in 10.0 mi Calm Calm - N/A   Overcast
10:55 AM 36.0 °F 33.3 °F 25.0 °F 64% 29.70 in 10.0 mi Variable 3.5 mph - N/A   Scattered Clouds
11:55 AM 39.0 °F - 24.1 °F 55% 29.68 in 10.0 mi Calm Calm - N/A   Scattered Clouds
12:55 PM 39.9 °F 37.8 °F 23.0 °F 51% 29.66 in 10.0 mi Variable 3.5 mph - N/A   Overcast
1:55 PM 41.0 °F - 25.0 °F 53% 29.65 in 10.0 mi Calm Calm - N/A   Overcast
2:55 PM 44.1 °F 40.8 °F 24.1 °F 45% 29.63 in 10.0 mi North 5.8 mph - N/A   Overcast
3:55 PM 45.0 °F 41.2 °F 24.1 °F 44% 29.62 in 10.0 mi Variable 6.9 mph - N/A   Overcast
4:55 PM 45.0 °F 39.3 °F 23.0 °F 42% 29.60 in 10.0 mi North 11.5 mph - N/A   Overcast
5:55 PM 44.1 °F 38.6 °F 24.1 °F 45% 29.60 in 10.0 mi NNE 10.4 mph - N/A   Overcast
6:55 PM 42.1 °F 36.6 °F 27.0 °F 55% 29.63 in 10.0 mi ENE 9.2 mph - N/A   Overcast
7:28 PM 39.0 °F 32.8 °F 30.9 °F 73% 29.61 in 10.0 mi SW 9.2 mph - 0.00 in Rain Light Rain
7:39 PM 39.0 °F 34.0 °F 30.9 °F 73% 29.61 in 10.0 mi WSW 6.9 mph - 0.00 in Rain Light Rain
7:55 PM 37.9 °F 31.5 °F 32.0 °F 79% 29.64 in 10.0 mi West 9.2 mph - 0.00 in Rain Light Rain
8:29 PM 37.0 °F 30.4 °F 32.0 °F 82% 29.61 in 10.0 mi West 9.2 mph - 0.00 in Rain Light Rain
8:51 PM 35.6 °F 30.7 °F 33.8 °F 93% 29.61 in 10.0 mi West 5.8 mph - 0.00 in   Overcast
8:55 PM 37.0 °F 32.4 °F 33.1 °F 86% 29.63 in 10.0 mi West 5.8 mph - 0.00 in   Overcast
9:55 PM 36.0 °F 33.3 °F 33.1 °F 89% 29.63 in 10.0 mi ENE 3.5 mph - N/A   Overcast
10:55 PM 34.0 °F 25.5 °F 33.1 °F 96% 29.63 in 4.0 mi South 11.5 mph - 0.01 in Snow Light Snow
10:58 PM 33.1 °F 24.9 °F 32.0 °F 96% 29.62 in 2.5 mi SSE 10.4 mph - 0.00 in Snow Light Snow
11:06 PM 32.0 °F 24.8 °F 32.0 °F 100% 29.62 in 1.2 mi SSE 8.1 mph - 0.01 in Snow Light Snow
11:17 PM 32.0 °F 24.2 °F 32.0 °F 100% 29.62 in 0.8 mi SE 9.2 mph - 0.02 in Snow Light Snow
11:33 PM 32.0 °F 25.6 °F 32.0 °F 100% 29.62 in 1.0 mi ESE 6.9 mph - 0.04 in Snow Light Snow
11:48 PM 32.0 °F 24.2 °F 32.0 °F 100% 29.62 in 1.5 mi ESE 9.2 mph - 0.05 in Snow Light Snow
11:55 PM 32.0 °F 24.8 °F 32.0 °F 100% 29.63 in 1.0 mi SE 8.1 mph - 0.06 in Snow Light Snow